This is the latest recevied weather packets stored in our database for station/object F4AMY-13. If no packets are shown the sender has not sent any weather packets the latest 10 day(s).
| Time | Temp. | Humidity | Pressure | Rain* | Wind** | Luminosity | Snow |
|---|---|---|---|---|---|---|---|
| 1777723057 | 25° C | 33% | 1021.2 hPa | 0 mm | 212.34 m/s, ° | 475 W/m² | - |
| 1777722757 | 25° C | 33% | 1021.1 hPa | 0 mm | 208.77 m/s, ° | 467 W/m² | - |
| 1777722457 | 25° C | 33% | 1021.2 hPa | 0 mm | 202.96 m/s, ° | 454 W/m² | - |
| 1777722157 | 25° C | 34% | 1021.2 hPa | 0 mm | 213.24 m/s, ° | 477 W/m² | - |
| 1777721857 | 24.44° C | 36% | 1021.2 hPa | 0 mm | 199.83 m/s, ° | 447 W/m² | - |
| 1777721557 | 24.44° C | 35% | 1021.4 hPa | 0 mm | 205.19 m/s, ° | 459 W/m² | - |
| 1777721257 | 24.44° C | 35% | 1021.2 hPa | 0 mm | 135.9 m/s, ° | 304 W/m² | - |
| 1777720957 | 23.89° C | 35% | 1021.5 hPa | 0 mm | 202.51 m/s, ° | 453 W/m² | - |
| 1777720657 | 23.89° C | 32% | 1021.8 hPa | 0 mm | 189.99 m/s, ° | 425 W/m² | - |
| 1777720357 | 23.89° C | 31% | 1021.6 hPa | 0 mm | 188.2 m/s, ° | 421 W/m² | - |
| 1777720057 | 23.33° C | 34% | 1021.7 hPa | 0 mm | 189.99 m/s, ° | 425 W/m² | - |
| 1777719757 | 23.33° C | 34% | 1022 hPa | 0 mm | 122.04 m/s, ° | 273 W/m² | - |
| 1777719457 | 23.33° C | 36% | 1021.8 hPa | 0 mm | 44.7 m/s, ° | 100 W/m² | - |
| 1777719157 | 23.33° C | 33% | 1021.9 hPa | 0 mm | 119.81 m/s, ° | 268 W/m² | - |
| 1777718857 | 22.78° C | 33% | 1022 hPa | 0 mm | 73.76 m/s, ° | 165 W/m² | - |
| 1777718557 | 22.78° C | 36% | 1022.3 hPa | 0 mm | 87.62 m/s, ° | 196 W/m² | - |
| 1777718256 | 22.78° C | 38% | 1022.2 hPa | 0 mm | 59.9 m/s, ° | 134 W/m² | - |
| 1777717957 | 22.78° C | 39% | 1022.2 hPa | 0 mm | 39.79 m/s, ° | 89 W/m² | - |
| 1777717656 | 22.22° C | 36% | 1022.3 hPa | 0 mm | 33.53 m/s, ° | 75 W/m² | - |
| 1777717356 | 22.22° C | 38% | 1022.1 hPa | 0 mm | 38.45 m/s, ° | 86 W/m² | - |
| 1777717056 | 21.67° C | 36% | 1022.3 hPa | 0 mm | 50.52 m/s, ° | 113 W/m² | - |
| 1777716756 | 21.67° C | 34% | 1022.5 hPa | 0 mm | 31.29 m/s, ° | 70 W/m² | - |
| 1777716456 | 21.67° C | 35% | 1022.4 hPa | 0 mm | 27.72 m/s, ° | 62 W/m² | - |
| 1777716156 | 21.67° C | 38% | 1022.3 hPa | 0 mm | 26.82 m/s, ° | 60 W/m² | - |
| 1777715856 | 21.67° C | 38% | 1022.6 hPa | 0 mm | 27.72 m/s, ° | 62 W/m² | - |
* Rain latest hour (hover to see other rain measurements)
** Current wind speed in m/s (hover to see current wind gust speed)